Preview of NWS' New Version of Forecast
This preview is not operational and should not be used for support decisions.

Regional Weather Roundup (RWR)

Issued by National Weather Service (NWS)

                            
000
ASUS45 KBOI 190810
RWRID 

IDAHO REGIONAL WEATHER ROUNDUP
NATIONAL WEATHER SERVICE BOISE ID
200 AM MDT FRI APR 19 2019

NOTE: "FAIR" INDICATES FEW OR NO CLOUDS BELOW 12000 FEET
WITH NO SIGNIFICANT WEATHER AND/OR OBSTRUCTIONS TO VISIBILITY

IDZ012-014-190900-
SOUTHWEST IDAHO

  
CITY           SKY/WX    TMP DP  RH WIND       PRES   REMARKS
BOISE          CLEAR     57  39  51 E13       30.13S                  
CALDWELL       CLEAR     50  44  80 CALM      30.12F                  
MOUNTAIN HOME  CLEAR     45  41  86 CALM      30.15S                  
$$

IDZ016-017-190900-
SOUTHCENTRAL IDAHO

  
CITY           SKY/WX    TMP DP  RH WIND       PRES   REMARKS
BURLEY         CLEAR     50  37  61 S9        30.19F                  
JEROME         CLEAR     51  35  54 SE5       30.20S                  
TWIN FALLS     CLEAR     49  36  61 S10       30.19F                  
$$

IDZ019>023-190900-
SOUTHEAST IDAHO

  
CITY           SKY/WX    TMP DP  RH WIND       PRES   REMARKS
IDAHO FALLS    CLEAR     49  34  56 SW7       30.22S                  
POCATELLO      CLEAR     47  36  65 CALM      30.23S                  
REXBURG        CLEAR     50  33  52 S12       30.20F                  
$$

IDZ006-010-011-018-031-032-190900-
CENTRAL IDAHO MOUNTAINS

  
CITY           SKY/WX    TMP DP  RH WIND       PRES   REMARKS
MCCALL         CLEAR     35  30  82 CALM      30.20F                  
HAILEY         CLEAR     43  32  65 NW16      30.26F                  
STANLEY          N/A     32  25  75 CALM      30.31S                  
SALMON         CLOUDY    43  37  79 CALM      30.18F                  
CHALLIS        CLEAR     45  30  55 CALM      30.22S                  
$$

IDZ002-004-006-007-026-190900-
NORTHERN IDAHO

  
CITY           SKY/WX    TMP DP  RH WIND       PRES   REMARKS
LEWISTON       CLOUDY    56  47  71 SE5       30.03S                  
LOWELL         NOT AVBL                                               
COEUR D'ALENE  NOT AVBL                                               
MULLAN PASS    CLOUDY    45  37  73 SW8       30.12F                  
$$